| time (UTC) | temp F | wind direction | speed MPH | gust MPH | rain 1hr in | rain 24hr in | rain mn in | humidity % | barometer mb |
| 20260506134340 | 76 | 109 | 9.0 | 17.0 | 0.00 | 0.00 | 0.00 | 42 | 1003.9 |
| 20260506133840 | 76 | 170 | 10.0 | 16.0 | 0.00 | 0.00 | 0.00 | 42 | 1003.6 |
| 20260506133340 | 76 | 192 | 5.0 | 19.0 | 0.00 | 0.00 | 0.00 | 43 | 1004.1 |
| 20260506132840 | 76 | 93 | 9.0 | 19.0 | 0.00 | 0.00 | 0.00 | 42 | 1004.0 |
| 20260506132340 | 77 | 188 | 7.0 | 16.0 | 0.00 | 0.00 | 0.00 | 41 | 1004.2 |
| 20260506131840 | 77 | 211 | 9.0 | 16.0 | 0.00 | 0.00 | 0.00 | 41 | 1004.5 |
| 20260506131339 | 77 | 181 | 4.0 | 16.0 | 0.00 | 0.00 | 0.00 | 41 | 1004.6 |
| 20260506130841 | 76 | 151 | 5.0 | 18.0 | 0.00 | 0.00 | 0.00 | 42 | 1004.8 |
| 20260506130340 | 75 | 202 | 9.0 | 18.0 | 0.00 | 0.00 | 0.00 | 42 | 1004.8 |
| 20260506125840 | 77 | 166 | 10.0 | 17.0 | 0.00 | 0.00 | 0.00 | 41 | 1005.0 |
| 20260506125340 | 77 | 230 | 6.0 | 14.0 | 0.00 | 0.00 | 0.00 | 41 | 1004.8 |
| 20260506124839 | 77 | 211 | 4.0 | 14.0 | 0.00 | 0.00 | 0.00 | 41 | 1005.0 |
| 20260506124340 | 77 | 112 | 8.0 | 15.0 | 0.00 | 0.00 | 0.00 | 42 | 1005.2 |
| 20260506123840 | 78 | 188 | 6.0 | 15.0 | 0.00 | 0.00 | 0.00 | 41 | 1005.2 |
| 20260506123341 | 78 | 140 | 6.0 | 14.0 | 0.00 | 0.00 | 0.00 | 41 | 1005.1 |
| 20260506122840 | 78 | 213 | 5.0 | 16.0 | 0.00 | 0.00 | 0.00 | 40 | 1005.1 |
| 20260506122341 | 77 | 234 | 9.0 | 16.0 | 0.00 | 0.00 | 0.00 | 42 | 1005.3 |
| 20260506121840 | 77 | 210 | 2.0 | 13.0 | 0.00 | 0.00 | 0.00 | 42 | 1005.3 |
| 20260506121341 | 76 | 180 | 11.0 | 13.0 | 0.00 | 0.00 | 0.00 | 43 | 1005.3 |
| 20260506120839 | 76 | 185 | 10.0 | 13.0 | 0.00 | 0.00 | 0.00 | 42 | 1005.4 |
| 20260506120341 | 76 | 200 | 13.0 | 17.0 | 0.00 | 0.00 | 0.00 | 43 | 1005.6 |
| 20260506115340 | 76 | 196 | 8.0 | 20.0 | 0.00 | 0.00 | 0.00 | 43 | 1005.7 |
| 20260506114840 | 76 | 138 | 8.0 | 17.0 | 0.00 | 0.00 | 0.00 | 44 | 1005.8 |
| 20260506114340 | 76 | 171 | 16.0 | 16.0 | 0.00 | 0.00 | 0.00 | 43 | 1005.9 |
| 20260506113841 | 76 | 194 | 6.0 | 19.0 | 0.00 | 0.00 | 0.00 | 42 | 1006.1 |
| 20260506113340 | 76 | 209 | 13.0 | 23.0 | 0.00 | 0.00 | 0.00 | 43 | 1005.9 |
| 20260506112840 | 76 | 164 | 9.0 | 23.0 | 0.00 | 0.00 | 0.00 | 43 | 1006.2 |
| 20260506112340 | 76 | 253 | 3.0 | 18.0 | 0.00 | 0.00 | 0.00 | 43 | 1006.0 |
| 20260506111340 | 75 | 167 | 12.0 | 17.0 | 0.00 | 0.00 | 0.00 | 47 | 1006.0 |
| 20260506110840 | 74 | 174 | 4.0 | 19.0 | 0.00 | 0.00 | 0.00 | 47 | 1006.0 |
| 20260506110340 | 75 | 180 | 3.0 | 19.0 | 0.00 | 0.00 | 0.00 | 45 | 1006.1 |
| 20260506105840 | 75 | 194 | 5.0 | 19.0 | 0.00 | 0.00 | 0.00 | 45 | 1006.3 |
| 20260506105340 | 76 | 188 | 8.0 | 16.0 | 0.00 | 0.00 | 0.00 | 43 | 1006.4 |
| 20260506103840 | 75 | 97 | 9.0 | 17.0 | 0.00 | 0.00 | 0.00 | 46 | 1006.4 |
| 20260506102839 | 76 | 99 | 4.0 | 16.0 | 0.00 | 0.00 | 0.00 | 44 | 1006.3 |
| 20260506102340 | 75 | 212 | 9.0 | 16.0 | 0.00 | 0.00 | 0.00 | 45 | 1006.8 |
| 20260506101840 | 75 | 129 | 4.0 | 9.0 | 0.00 | 0.00 | 0.00 | 44 | 1006.8 |
| 20260506101340 | 75 | 219 | 4.0 | 13.0 | 0.00 | 0.00 | 0.00 | 44 | 1006.8 |
| 20260506100839 | 75 | 164 | 7.0 | 13.0 | 0.00 | 0.00 | 0.00 | 45 | 1006.8 |
| 20260506100353 | 75 | 151 | 4.0 | 13.0 | 0.00 | 0.00 | 0.00 | 45 | 1007.1 |
| 20260506095840 | 74 | 231 | 4.0 | 9.0 | 0.00 | 0.00 | 0.00 | 46 | 1006.8 |
| 20260506095339 | 74 | 186 | 2.0 | 9.0 | 0.00 | 0.00 | 0.00 | 47 | 1007.2 |
| 20260506094340 | 75 | 213 | 4.0 | 8.0 | 0.00 | 0.00 | 0.00 | 45 | 1007.3 |
| 20260506093840 | 74 | 203 | 5.0 | 12.0 | 0.00 | 0.00 | 0.00 | 45 | 1006.9 |
| 20260506093340 | 75 | 210 | 4.0 | 12.0 | 0.00 | 0.00 | 0.00 | 44 | 1007.1 |
| 20260506092340 | 75 | 167 | 3.0 | 7.0 | 0.00 | 0.00 | 0.00 | 43 | 1007.2 |
| 20260506091839 | 75 | 124 | 1.0 | 7.0 | 0.00 | 0.00 | 0.00 | 43 | 1006.8 |
| 20260506091339 | 75 | 185 | 4.0 | 7.0 | 0.00 | 0.00 | 0.00 | 42 | 1007.4 |
| 20260506090840 | 75 | 184 | 2.0 | 8.0 | 0.00 | 0.00 | 0.00 | 43 | 1007.2 |
| 20260506090340 | 75 | 173 | 6.0 | 8.0 | 0.00 | 0.00 | 0.00 | 43 | 1007.1 |
| 20260506085840 | 74 | 203 | 5.0 | 6.0 | 0.00 | 0.00 | 0.00 | 42 | 1007.2 |
| 20260506084840 | 74 | 183 | 2.0 | 6.0 | 0.00 | 0.00 | 0.00 | 44 | 1007.2 |
| 20260506084340 | 74 | 188 | 3.0 | 6.0 | 0.00 | 0.00 | 0.00 | 43 | 1007.1 |
| 20260506083841 | 74 | 215 | 2.0 | 6.0 | 0.00 | 0.00 | 0.00 | 44 | 1007.2 |
| 20260506083340 | 75 | 196 | 2.0 | 5.0 | 0.00 | 0.00 | 0.00 | 43 | 1007.4 |
| 20260506082840 | 74 | 73 | 2.0 | 3.0 | 0.00 | 0.00 | 0.00 | 46 | 1007.2 |
| 20260506082340 | 75 | 225 | 2.0 | 7.0 | 0.00 | 0.00 | 0.00 | 43 | 1007.5 |
| 20260506081840 | 73 | 106 | 0.0 | 7.0 | 0.00 | 0.00 | 0.00 | 44 | 1007.3 |
| 20260506081340 | 73 | 188 | 0.0 | 6.0 | 0.00 | 0.00 | 0.00 | 48 | 1007.5 |
| 20260506080339 | 72 | 306 | 2.0 | 8.0 | 0.00 | 0.00 | 0.00 | 48 | 1007.8 |
| 20260506073340 | 71 | 216 | 2.0 | 6.0 | 0.00 | 0.00 | 0.00 | 54 | 1008.1 |
| 20260506072840 | 71 | 245 | 3.0 | 9.0 | 0.00 | 0.00 | 0.00 | 54 | 1008.0 |
| 20260506072340 | 70 | 245 | 2.0 | 9.0 | 0.00 | 0.00 | 0.00 | 56 | 1007.9 |
| 20260506071341 | 69 | 233 | 6.0 | 9.0 | 0.00 | 0.00 | 0.00 | 58 | 1008.1 |
| 20260506070841 | 69 | 249 | 1.0 | 7.0 | 0.00 | 0.00 | 0.00 | 58 | 1008.1 |
| 20260506070340 | 67 | 230 | 6.0 | 9.0 | 0.00 | 0.00 | 0.00 | 60 | 1008.1 |
| 20260506061840 | 65 | 176 | 2.0 | 7.0 | 0.00 | 0.00 | 0.00 | 69 | 1007.9 |
| 20260506061341 | 64 | 235 | 4.0 | 7.0 | 0.00 | 0.00 | 0.00 | 70 | 1008.1 |
| 20260506060340 | 64 | 205 | 4.0 | 8.0 | 0.00 | 0.00 | 0.00 | 70 | 1008.0 |
| 20260506051339 | 59 | 223 | 7.0 | 10.0 | 0.00 | 0.00 | 0.00 | 81 | 1007.9 |
| 20260506050840 | 58 | 232 | 4.0 | 6.0 | 0.00 | 0.00 | 0.00 | 83 | 1008.0 |
| 20260506050340 | 58 | 231 | 2.0 | 8.0 | 0.00 | 0.00 | 0.00 | 84 | 1008.0 |
| 20260506044840 | 58 | 198 | 5.0 | 7.0 | 0.00 | 0.00 | 0.00 | 84 | 1007.7 |
| 20260506043339 | 57 | 230 | 3.0 | 6.0 | 0.00 | 0.00 | 0.00 | 84 | 1007.8 |
| 20260506042840 | 57 | 201 | 5.0 | 6.0 | 0.00 | 0.00 | 0.00 | 84 | 1007.7 |
| 20260506042340 | 56 | 214 | 2.0 | 6.0 | 0.00 | 0.00 | 0.00 | 85 | 1007.6 |
| 20260506041840 | 56 | 198 | 2.0 | 5.0 | 0.00 | 0.00 | 0.00 | 85 | 1007.7 |
| 20260506040344 | 55 | 193 | 2.0 | 4.0 | 0.00 | 0.00 | 0.00 | 85 | 1007.3 |
| 20260506035840 | 56 | 152 | 4.0 | 4.0 | 0.00 | 0.00 | 0.00 | 84 | 1007.1 |
| 20260506034840 | 56 | 195 | 1.0 | 2.0 | 0.00 | 0.00 | 0.00 | 83 | 1007.2 |
| 20260506034339 | 56 | 238 | 0.0 | 2.0 | 0.00 | 0.00 | 0.00 | 82 | 1007.2 |
| 20260506033839 | 56 | 223 | 1.0 | 3.0 | 0.00 | 0.00 | 0.00 | 82 | 1007.3 |
| 20260506033340 | 56 | 143 | 0.0 | 4.0 | 0.00 | 0.00 | 0.00 | 82 | 1007.4 |
| 20260506032840 | 56 | 254 | 0.0 | 4.0 | 0.00 | 0.00 | 0.00 | 82 | 1007.2 |
| 20260506032340 | 56 | 170 | 1.0 | 3.0 | 0.00 | 0.00 | 0.00 | 82 | 1007.3 |
| 20260506031339 | 57 | 173 | 0.0 | 2.0 | 0.00 | 0.00 | 0.00 | 80 | 1007.3 |
| 20260506030840 | 58 | 157 | 0.0 | 2.0 | 0.00 | 0.00 | 0.00 | 80 | 1007.3 |
| 20260506030340 | 58 | 197 | 1.0 | 2.0 | 0.00 | 0.00 | 0.00 | 80 | 1007.5 |
| 20260506024840 | 58 | 229 | 1.0 | 3.0 | 0.00 | 0.00 | 0.00 | 80 | 1007.1 |
| 20260506024340 | 58 | 220 | 0.0 | 2.0 | 0.00 | 0.00 | 0.00 | 80 | 1007.4 |
| 20260506023339 | 58 | 248 | 0.0 | 2.0 | 0.00 | 0.00 | 0.00 | 79 | 1007.1 |
| 20260506022840 | 58 | 262 | 0.0 | 2.0 | 0.00 | 0.00 | 0.00 | 79 | 1007.0 |
| 20260506022340 | 59 | 233 | 1.0 | 2.0 | 0.00 | 0.00 | 0.00 | 78 | 1007.3 |
| 20260506021840 | 59 | 35 | 0.0 | 2.0 | 0.00 | 0.00 | 0.00 | 77 | 1007.2 |
| 20260506020839 | 60 | 344 | 1.0 | 3.0 | 0.00 | 0.00 | 0.00 | 77 | 1007.4 |
| 20260506015840 | 60 | 216 | 2.0 | 3.0 | 0.00 | 0.00 | 0.00 | 75 | 1007.0 |
| 20260506015340 | 60 | 202 | 1.0 | 3.0 | 0.00 | 0.00 | 0.00 | 75 | 1007.2 |
| 20260506014839 | 60 | 186 | 0.0 | 2.0 | 0.00 | 0.00 | 0.00 | 74 | 1007.0 |
| 20260506014340 | 60 | 248 | 1.0 | 2.0 | 0.00 | 0.00 | 0.00 | 74 | 1007.0 |
| 20260506013840 | 61 | 89 | 0.0 | 3.0 | 0.00 | 0.00 | 0.00 | 73 | 1006.9 |
| 20260506013340 | 61 | 326 | 2.0 | 4.0 | 0.00 | 0.00 | 0.00 | 72 | 1007.0 |
| 20260506012340 | 61 | 229 | 0.0 | 4.0 | 0.00 | 0.00 | 0.00 | 71 | 1007.1 |
| 20260506011840 | 62 | 206 | 1.0 | 6.0 | 0.00 | 0.00 | 0.00 | 70 | 1007.1 |
| 20260506011340 | 62 | 212 | 1.0 | 6.0 | 0.00 | 0.00 | 0.00 | 69 | 1006.9 |
| 20260506010340 | 62 | 53 | 2.0 | 5.0 | 0.00 | 0.00 | 0.00 | 68 | 1007.0 |
| 20260506005839 | 62 | 44 | 0.0 | 5.0 | 0.00 | 0.00 | 0.00 | 68 | 1006.9 |
| 20260506005339 | 62 | 207 | 0.0 | 4.0 | 0.00 | 0.00 | 0.00 | 68 | 1006.8 |
| 20260506004840 | 62 | 180 | 0.0 | 4.0 | 0.00 | 0.00 | 0.00 | 67 | 1006.8 |
| 20260506002341 | 60 | 19 | 1.0 | 2.0 | 0.00 | 0.00 | 0.00 | 71 | 1006.2 |
| 20260506001840 | 60 | 355 | 0.0 | 2.0 | 0.00 | 0.00 | 0.00 | 70 | 1005.9 |
| 20260506001339 | 60 | 106 | 0.0 | 1.0 | 0.00 | 0.00 | 0.00 | 69 | 1006.0 |
| 20260506000840 | 60 | 93 | 1.0 | 1.0 | 0.00 | 0.00 | 0.00 | 69 | 1006.0 |
| 20260506000340 | 60 | 89 | 0.0 | 2.0 | 0.00 | 0.00 | 0.00 | 69 | 1006.0 |
| 20260505235840 | 60 | 89 | 0.0 | 2.0 | 0.00 | 0.00 | 0.00 | 68 | 1005.8 |
| 20260505235340 | 60 | 84 | 1.0 | 2.0 | 0.00 | 0.00 | 0.00 | 68 | 1005.8 |
| 20260505234840 | 60 | 103 | 0.0 | 3.0 | 0.00 | 0.00 | 0.00 | 67 | 1005.8 |
| 20260505234339 | 60 | 150 | 0.0 | 3.0 | 0.00 | 0.00 | 0.00 | 66 | 1005.8 |
| 20260505233841 | 61 | 165 | 2.0 | 4.0 | 0.00 | 0.00 | 0.00 | 65 | 1005.9 |
| 20260505233340 | 62 | 219 | 2.0 | 4.0 | 0.00 | 0.00 | 0.00 | 64 | 1005.9 |
| 20260505232340 | 62 | 219 | 0.0 | 3.0 | 0.00 | 0.00 | 0.00 | 64 | 1005.7 |
| 20260505231840 | 61 | 33 | 0.0 | 4.0 | 0.00 | 0.00 | 0.00 | 65 | 1005.8 |
| 20260505231353 | 61 | 223 | 1.0 | 4.0 | 0.00 | 0.00 | 0.00 | 65 | 1005.5 |
| 20260505230840 | 60 | 156 | 0.0 | 3.0 | 0.00 | 0.00 | 0.00 | 65 | 1005.3 |
| 20260505230340 | 60 | 263 | 1.0 | 4.0 | 0.00 | 0.00 | 0.00 | 65 | 1005.6 |
| 20260505225840 | 61 | 305 | 0.0 | 5.0 | 0.00 | 0.00 | 0.00 | 64 | 1005.3 |
| 20260505225340 | 61 | 228 | 2.0 | 5.0 | 0.00 | 0.00 | 0.00 | 64 | 1005.3 |
| 20260505224840 | 61 | 248 | 0.0 | 4.0 | 0.00 | 0.00 | 0.00 | 64 | 1005.0 |
| 20260505224340 | 61 | 230 | 2.0 | 6.0 | 0.00 | 0.00 | 0.00 | 64 | 1005.3 |
| 20260505223839 | 61 | 234 | 2.0 | 6.0 | 0.00 | 0.00 | 0.00 | 63 | 1005.1 |
| 20260505223340 | 61 | 207 | 2.0 | 6.0 | 0.00 | 0.00 | 0.00 | 63 | 1005.0 |
| 20260505222839 | 61 | 257 | 6.0 | 6.0 | 0.00 | 0.00 | 0.00 | 63 | 1004.9 |
| 20260505222340 | 61 | 196 | 2.0 | 5.0 | 0.00 | 0.00 | 0.00 | 63 | 1004.8 |
| 20260505221839 | 61 | 208 | 2.0 | 5.0 | 0.00 | 0.00 | 0.00 | 62 | 1004.8 |
| 20260505221340 | 61 | 198 | 2.0 | 4.0 | 0.00 | 0.00 | 0.00 | 62 | 1004.6 |
| 20260505220841 | 61 | 214 | 3.0 | 4.0 | 0.00 | 0.00 | 0.00 | 62 | 1004.5 |
| 20260505215340 | 62 | 207 | 1.0 | 5.0 | 0.00 | 0.00 | 0.00 | 61 | 1004.4 |
| 20260505214853 | 62 | 178 | 2.0 | 5.0 | 0.00 | 0.00 | 0.00 | 61 | 1004.4 |
| 20260505213840 | 62 | 213 | 2.0 | 6.0 | 0.00 | 0.00 | 0.00 | 60 | 1004.4 |
| 20260505213341 | 62 | 26 | 3.0 | 6.0 | 0.00 | 0.00 | 0.00 | 61 | 1004.3 |
| 20260505212840 | 62 | 230 | 5.0 | 8.0 | 0.00 | 0.00 | 0.00 | 60 | 1004.3 |
| 20260505211840 | 62 | 219 | 4.0 | 5.0 | 0.00 | 0.00 | 0.00 | 59 | 1004.3 |
| 20260505211339 | 62 | 237 | 2.0 | 8.0 | 0.00 | 0.00 | 0.00 | 59 | 1004.3 |
| 20260505210840 | 63 | 217 | 6.0 | 9.0 | 0.00 | 0.00 | 0.00 | 58 | 1004.1 |
| 20260505205339 | 63 | 198 | 5.0 | 7.0 | 0.00 | 0.00 | 0.00 | 58 | 1004.2 |
| 20260505204840 | 63 | 223 | 3.0 | 7.0 | 0.00 | 0.00 | 0.00 | 57 | 1003.8 |
| 20260505204339 | 64 | 166 | 1.0 | 10.0 | 0.00 | 0.00 | 0.00 | 56 | 1004.0 |
| 20260505203840 | 64 | 216 | 5.0 | 10.0 | 0.00 | 0.00 | 0.00 | 55 | 1003.9 |
| 20260505203340 | 64 | 216 | 4.0 | 6.0 | 0.00 | 0.00 | 0.00 | 55 | 1003.7 |
| 20260505202840 | 64 | 153 | 2.0 | 9.0 | 0.00 | 0.00 | 0.00 | 55 | 1003.4 |
| 20260505202339 | 64 | 171 | 5.0 | 9.0 | 0.00 | 0.00 | 0.00 | 55 | 1003.5 |
| 20260505201840 | 64 | 202 | 4.0 | 7.0 | 0.00 | 0.00 | 0.00 | 55 | 1003.5 |
| 20260505201340 | 64 | 147 | 2.0 | 7.0 | 0.00 | 0.00 | 0.00 | 55 | 1003.5 |
| 20260505200840 | 64 | 247 | 2.0 | 6.0 | 0.00 | 0.00 | 0.00 | 55 | 1003.3 |
| 20260505200339 | 65 | 199 | 6.0 | 10.0 | 0.00 | 0.00 | 0.00 | 54 | 1003.4 |
| 20260505195840 | 65 | 175 | 4.0 | 11.0 | 0.00 | 0.00 | 0.00 | 54 | 1003.3 |
| 20260505195340 | 65 | 193 | 4.0 | 11.0 | 0.00 | 0.00 | 0.00 | 53 | 1003.4 |
| 20260505194840 | 65 | 219 | 4.0 | 9.0 | 0.00 | 0.00 | 0.00 | 52 | 1003.4 |
| 20260505193840 | 66 | 238 | 4.0 | 16.0 | 0.00 | 0.00 | 0.00 | 51 | 1003.5 |
| 20260505193340 | 66 | 205 | 3.0 | 13.0 | 0.00 | 0.00 | 0.00 | 51 | 1003.2 |
| 20260505192840 | 66 | 221 | 4.0 | 13.0 | 0.00 | 0.00 | 0.00 | 51 | 1003.2 |
| 20260505191840 | 67 | 166 | 7.0 | 13.0 | 0.00 | 0.00 | 0.00 | 50 | 1003.2 |
| 20260505191340 | 67 | 193 | 6.0 | 16.0 | 0.00 | 0.00 | 0.00 | 50 | 1003.1 |
| 20260505190840 | 67 | 220 | 9.0 | 16.0 | 0.00 | 0.00 | 0.00 | 49 | 1003.1 |
| 20260505190340 | 67 | 191 | 6.0 | 12.0 | 0.00 | 0.00 | 0.00 | 49 | 1003.2 |
| 20260505185339 | 68 | 198 | 5.0 | 13.0 | 0.00 | 0.00 | 0.00 | 48 | 1003.2 |
| 20260505184840 | 68 | 177 | 7.0 | 14.0 | 0.00 | 0.00 | 0.00 | 48 | 1003.2 |
| 20260505184340 | 68 | 239 | 5.0 | 14.0 | 0.00 | 0.00 | 0.00 | 48 | 1002.9 |
| 20260505183839 | 68 | 191 | 8.0 | 12.0 | 0.00 | 0.00 | 0.00 | 48 | 1003.0 |
| 20260505183340 | 69 | 168 | 9.0 | 12.0 | 0.00 | 0.00 | 0.00 | 47 | 1003.3 |
| 20260505182840 | 69 | 190 | 8.0 | 11.0 | 0.00 | 0.00 | 0.00 | 47 | 1003.3 |
| 20260505181841 | 70 | 229 | 5.0 | 17.0 | 0.00 | 0.00 | 0.00 | 47 | 1003.2 |
| 20260505181340 | 70 | 205 | 4.0 | 12.0 | 0.00 | 0.00 | 0.00 | 46 | 1003.2 |
| 20260505180340 | 70 | 208 | 5.0 | 11.0 | 0.00 | 0.00 | 0.00 | 46 | 1003.1 |
| 20260505175840 | 71 | 202 | 6.0 | 11.0 | 0.00 | 0.00 | 0.00 | 46 | 1002.9 |
| 20260505175340 | 71 | 271 | 3.0 | 11.0 | 0.00 | 0.00 | 0.00 | 46 | 1002.9 |
| 20260505174340 | 72 | 194 | 5.0 | 14.0 | 0.00 | 0.00 | 0.00 | 45 | 1003.1 |
| 20260505173340 | 73 | 200 | 8.0 | 14.0 | 0.00 | 0.00 | 0.00 | 44 | 1002.8 |
| 20260505172841 | 73 | 151 | 3.0 | 13.0 | 0.00 | 0.00 | 0.00 | 43 | 1002.9 |
| 20260505172340 | 73 | 211 | 2.0 | 19.0 | 0.00 | 0.00 | 0.00 | 44 | 1003.0 |
| 20260505171840 | 73 | 223 | 6.0 | 19.0 | 0.00 | 0.00 | 0.00 | 43 | 1003.2 |
| 20260505171340 | 73 | 175 | 7.0 | 14.0 | 0.00 | 0.00 | 0.00 | 43 | 1003.1 |
| 20260505170853 | 74 | 226 | 5.0 | 11.0 | 0.00 | 0.00 | 0.00 | 43 | 1002.9 |
| 20260505170340 | 74 | 221 | 7.0 | 12.0 | 0.00 | 0.00 | 0.00 | 42 | 1003.1 |
| 20260505165840 | 74 | 215 | 6.0 | 15.0 | 0.00 | 0.00 | 0.00 | 42 | 1003.1 |
| 20260505165340 | 74 | 158 | 3.0 | 15.0 | 0.00 | 0.00 | 0.00 | 41 | 1003.1 |
| 20260505164337 | 75 | 231 | 5.0 | 16.0 | 0.00 | 0.00 | 0.00 | 41 | 1003.1 |
| 20260505163838 | 75 | 216 | 8.0 | 16.0 | 0.00 | 0.00 | 0.00 | 40 | 1003.2 |
| 20260505163338 | 76 | 194 | 4.0 | 11.0 | 0.00 | 0.00 | 0.00 | 40 | 1003.0 |
| 20260505162338 | 77 | 128 | 5.0 | 11.0 | 0.00 | 0.00 | 0.00 | 37 | 1002.8 |
| 20260505161838 | 78 | 169 | 8.0 | 11.0 | 0.00 | 0.00 | 0.00 | 37 | 1002.9 |
| 20260505161337 | 78 | 187 | 9.0 | 18.0 | 0.00 | 0.00 | 0.00 | 36 | 1003.1 |
| 20260505160837 | 78 | 212 | 10.0 | 18.0 | 0.00 | 0.00 | 0.00 | 35 | 1003.1 |
| 20260505160337 | 78 | 169 | 4.0 | 15.0 | 0.00 | 0.00 | 0.00 | 36 | 1003.1 |
| 20260505153338 | 79 | 197 | 14.0 | 19.0 | 0.00 | 0.00 | 0.00 | 35 | 1003.2 |
| 20260505152838 | 80 | 214 | 7.0 | 13.0 | 0.00 | 0.00 | 0.00 | 34 | 1003.1 |
| 20260505152338 | 80 | 197 | 8.0 | 13.0 | 0.00 | 0.00 | 0.00 | 33 | 1003.2 |
| 20260505151837 | 80 | 221 | 5.0 | 13.0 | 0.00 | 0.00 | 0.00 | 32 | 1003.2 |
| 20260505151337 | 80 | 161 | 8.0 | 13.0 | 0.00 | 0.00 | 0.00 | 32 | 1003.4 |
| 20260505150837 | 81 | 207 | 6.0 | 16.0 | 0.00 | 0.00 | 0.00 | 31 | 1003.6 |
| 20260505150337 | 81 | 180 | 3.0 | 16.0 | 0.00 | 0.00 | 0.00 | 31 | 1003.3 |
| 20260505140337 | 83 | 200 | 3.0 | 11.0 | 0.00 | 0.00 | 0.00 | 26 | 1004.0 |